STARLINK-32742 (62605 NORAD) Tracking and Keplerian Element Data

This shows tracking and keplerian element data for the satellite.

Feedback or suggestion? Click here.




ElementValue
Catalog62605
NameSTARLINK-32742
Epoch Orbit461
Epoch Day35.16668981
Epoch Year2025
RAAN11.8851
Inclination43.0001
Eccentricity0.0001547
Argument of Perigee266.1405
Mean Anonmoly225.5857
Mean Motion15.50582488
Decay Rate-0.00030071
L11 62605U 25008U 25035.16668981 -.00030071 00000+0 -50866-3 0 9994
L22 62605 43.0001 11.8851 0001547 266.1405 225.5857 15.50582488 4615



Live tracking and technical data element details for STARLINK-32742 (NORAD 62605). STARLINK-32742 can be tracked NOW for your location showing map with azimuth and elevation plus other details from your city location.







IsCatalogInMostPopularTable: catalog: 62605, numindb: 5
Update: records affected: 1



GetName: 62605 STARLINK-32742

Hit Count: updated at: Sun, 09 Feb 2025 13:25:35 GMT